Year,Month,Day,Hour,Minute,Value (Times are PST for temperature in C)
2018,06,11,00,00,10.80
2018,06,11,00,01,10.80
2018,06,11,00,02,10.80
2018,06,11,00,03,10.70
2018,06,11,00,04,10.70
2018,06,11,00,05,10.60
2018,06,11,00,06,10.60
2018,06,11,00,07,10.60
2018,06,11,00,08,10.60
2018,06,11,00,09,10.50
2018,06,11,00,10,10.40
2018,06,11,00,11,10.40
2018,06,11,00,12,10.40
2018,06,11,00,13,10.40
2018,06,11,00,14,10.40
2018,06,11,00,15,10.40
2018,06,11,00,16,10.40
2018,06,11,00,17,10.40
2018,06,11,00,18,10.40
2018,06,11,00,19,10.40
2018,06,11,00,20,10.40
2018,06,11,00,21,10.40
2018,06,11,00,22,10.40
2018,06,11,00,23,10.30
2018,06,11,00,24,10.30
2018,06,11,00,25,10.30
2018,06,11,00,26,10.30
2018,06,11,00,27,10.30
2018,06,11,00,28,10.30
2018,06,11,00,29,10.30
2018,06,11,00,30,10.30
2018,06,11,00,31,10.30
2018,06,11,00,32,10.30
2018,06,11,00,33,10.30
2018,06,11,00,34,10.30
2018,06,11,00,35,10.30
2018,06,11,00,36,10.30
2018,06,11,00,37,10.30
2018,06,11,00,38,10.30
2018,06,11,00,39,10.30
2018,06,11,00,40,10.30
2018,06,11,00,41,10.20
2018,06,11,00,42,10.20
2018,06,11,00,43,10.20
2018,06,11,00,44,10.20
2018,06,11,00,45,10.10
2018,06,11,00,46,10.10
2018,06,11,00,47,10.10
2018,06,11,00,48,10.10
2018,06,11,00,49,10.10
2018,06,11,00,50,10.10
2018,06,11,00,51,10.10
2018,06,11,00,52,10.10
2018,06,11,00,53,9.90
2018,06,11,00,54,9.90
2018,06,11,00,55,9.90
2018,06,11,00,56,9.90
2018,06,11,00,57,9.80
2018,06,11,00,58,9.70
2018,06,11,00,59,9.70
2018,06,11,01,00,9.70
2018,06,11,01,01,9.60
2018,06,11,01,02,9.60
2018,06,11,01,03,9.50
2018,06,11,01,04,9.50
2018,06,11,01,05,9.50
2018,06,11,01,06,9.40
2018,06,11,01,07,9.40
2018,06,11,01,08,9.40
2018,06,11,01,09,9.40
2018,06,11,01,10,9.30
2018,06,11,01,11,9.30
2018,06,11,01,12,9.30
2018,06,11,01,13,9.20
2018,06,11,01,14,9.20
2018,06,11,01,15,9.20
2018,06,11,01,16,9.20
2018,06,11,01,17,9.20
2018,06,11,01,18,9.10
2018,06,11,01,19,9.10
2018,06,11,01,20,9.10
2018,06,11,01,21,9.10
2018,06,11,01,22,9.10
2018,06,11,01,23,9.00
2018,06,11,01,24,9.00
2018,06,11,01,25,9.00
2018,06,11,01,26,9.00
2018,06,11,01,27,9.00
2018,06,11,01,28,8.90
2018,06,11,01,29,8.90
2018,06,11,01,30,8.90
2018,06,11,01,31,8.90
2018,06,11,01,32,8.90
2018,06,11,01,33,8.90
2018,06,11,01,34,8.90
2018,06,11,01,35,8.90
2018,06,11,01,36,8.90
2018,06,11,01,37,8.90
2018,06,11,01,38,8.90
2018,06,11,01,39,9.00
2018,06,11,01,40,9.00
2018,06,11,01,41,9.00
2018,06,11,01,42,9.00
2018,06,11,01,43,9.00
2018,06,11,01,44,9.00
2018,06,11,01,45,9.10
2018,06,11,01,46,9.10
2018,06,11,01,47,9.10
2018,06,11,01,48,9.10
2018,06,11,01,49,9.10
2018,06,11,01,50,9.10
2018,06,11,01,51,9.10
2018,06,11,01,52,9.10
2018,06,11,01,53,9.00
2018,06,11,01,54,9.00
2018,06,11,01,55,9.00
2018,06,11,01,56,9.00
2018,06,11,01,57,9.00
2018,06,11,01,58,8.90
2018,06,11,01,59,8.90
2018,06,11,02,00,8.90
2018,06,11,02,01,8.80
2018,06,11,02,02,8.80
2018,06,11,02,03,8.70
2018,06,11,02,04,8.70
2018,06,11,02,05,8.70
2018,06,11,02,06,8.70
2018,06,11,02,07,8.60
2018,06,11,02,08,8.60
2018,06,11,02,09,8.60
2018,06,11,02,10,8.50
2018,06,11,02,11,8.50
2018,06,11,02,12,8.50
2018,06,11,02,13,8.50
2018,06,11,02,14,8.40
2018,06,11,02,15,8.40
2018,06,11,02,16,8.40
2018,06,11,02,17,8.40
2018,06,11,02,18,8.40
2018,06,11,02,19,8.40
2018,06,11,02,20,8.40
2018,06,11,02,21,8.40
2018,06,11,02,22,8.40
2018,06,11,02,23,8.40
2018,06,11,02,24,8.40
2018,06,11,02,25,8.40
2018,06,11,02,26,8.30
2018,06,11,02,27,8.30
2018,06,11,02,28,8.30
2018,06,11,02,29,8.30
2018,06,11,02,30,8.30
2018,06,11,02,31,8.20
2018,06,11,02,32,8.20
2018,06,11,02,33,8.20
2018,06,11,02,34,8.20
2018,06,11,02,35,8.20
2018,06,11,02,36,8.20
2018,06,11,02,37,8.20
2018,06,11,02,38,8.20
2018,06,11,02,39,8.20
2018,06,11,02,40,8.20
2018,06,11,02,41,8.10
2018,06,11,02,42,8.10
2018,06,11,02,43,8.10
2018,06,11,02,44,8.10
2018,06,11,02,45,8.10
2018,06,11,02,46,8.00
2018,06,11,02,47,8.00
2018,06,11,02,48,8.00
2018,06,11,02,49,8.00
2018,06,11,02,50,8.00
2018,06,11,02,51,8.00
2018,06,11,02,52,8.00
2018,06,11,02,53,8.00
2018,06,11,02,54,8.00
2018,06,11,02,55,8.00
2018,06,11,02,56,8.00
2018,06,11,02,57,8.00
2018,06,11,02,58,8.00
2018,06,11,02,59,7.90
2018,06,11,03,00,7.90
2018,06,11,03,01,7.90
2018,06,11,03,02,7.90
2018,06,11,03,03,7.90
2018,06,11,03,04,7.80
2018,06,11,03,05,7.80
2018,06,11,03,06,7.80
2018,06,11,03,07,7.80
2018,06,11,03,08,7.80
2018,06,11,03,09,7.70
2018,06,11,03,10,7.70
2018,06,11,03,11,7.60
2018,06,11,03,12,7.60
2018,06,11,03,13,7.50
2018,06,11,03,14,7.50
2018,06,11,03,15,7.40
2018,06,11,03,16,7.40
2018,06,11,03,17,7.30
2018,06,11,03,18,7.30
2018,06,11,03,19,7.30
2018,06,11,03,20,7.30
2018,06,11,03,21,7.20
2018,06,11,03,22,7.20
2018,06,11,03,23,7.20
2018,06,11,03,24,7.20
2018,06,11,03,25,7.20
2018,06,11,03,26,7.20
2018,06,11,03,27,7.10
2018,06,11,03,28,7.10
2018,06,11,03,29,7.10
2018,06,11,03,30,7.10
2018,06,11,03,31,7.10
2018,06,11,03,32,7.10
2018,06,11,03,33,7.10
2018,06,11,03,34,7.10
2018,06,11,03,35,7.10
2018,06,11,03,36,7.10
2018,06,11,03,37,7.10
2018,06,11,03,38,7.10
2018,06,11,03,39,7.10
2018,06,11,03,40,7.10
2018,06,11,03,41,7.10
2018,06,11,03,42,7.10
2018,06,11,03,43,7.10
2018,06,11,03,44,7.10
2018,06,11,03,45,7.10
2018,06,11,03,46,7.10
2018,06,11,03,47,7.10
2018,06,11,03,48,7.10
2018,06,11,03,49,7.10
2018,06,11,03,50,7.10
2018,06,11,03,51,7.00
2018,06,11,03,52,7.00
2018,06,11,03,53,7.00
2018,06,11,03,54,7.00
2018,06,11,03,55,6.90
2018,06,11,03,56,6.90
2018,06,11,03,57,6.90
2018,06,11,03,58,6.80
2018,06,11,03,59,6.80
2018,06,11,04,00,6.80
2018,06,11,04,01,6.80
2018,06,11,04,02,6.80
2018,06,11,04,03,6.80
2018,06,11,04,04,6.80
2018,06,11,04,05,6.80
2018,06,11,04,06,6.80
2018,06,11,04,07,6.80
2018,06,11,04,08,6.80
2018,06,11,04,09,6.80
2018,06,11,04,10,6.80
2018,06,11,04,11,6.80
2018,06,11,04,12,6.80
2018,06,11,04,13,6.80
2018,06,11,04,14,6.80
2018,06,11,04,15,6.80
2018,06,11,04,16,6.70
2018,06,11,04,17,6.70
2018,06,11,04,18,6.70
2018,06,11,04,19,6.70
2018,06,11,04,20,6.70
2018,06,11,04,21,6.70
2018,06,11,04,22,6.70
2018,06,11,04,23,6.60
2018,06,11,04,24,6.60
2018,06,11,04,25,6.60
2018,06,11,04,26,6.60
2018,06,11,04,27,6.60
2018,06,11,04,28,6.60
2018,06,11,04,29,6.70
2018,06,11,04,30,6.70
2018,06,11,04,31,6.60
2018,06,11,04,32,6.60
2018,06,11,04,33,6.60
2018,06,11,04,34,6.60
2018,06,11,04,35,6.60
2018,06,11,04,36,6.60
2018,06,11,04,37,6.60
2018,06,11,04,38,6.60
2018,06,11,04,39,6.50
2018,06,11,04,40,6.40
2018,06,11,04,41,6.40
2018,06,11,04,42,6.40
2018,06,11,04,43,6.40
2018,06,11,04,44,6.40
2018,06,11,04,45,6.40
2018,06,11,04,46,6.40
2018,06,11,04,47,6.40
2018,06,11,04,48,6.40
2018,06,11,04,49,6.40
2018,06,11,04,50,6.40
2018,06,11,04,51,6.40
2018,06,11,04,52,6.40
2018,06,11,04,53,6.40
2018,06,11,04,54,6.40
2018,06,11,04,55,6.40
2018,06,11,04,56,6.40
2018,06,11,04,57,6.40
2018,06,11,04,58,6.40
2018,06,11,04,59,6.40
2018,06,11,05,00,6.40
2018,06,11,05,01,6.40
2018,06,11,05,02,6.40
2018,06,11,05,03,6.40
2018,06,11,05,04,6.40
2018,06,11,05,05,6.40
2018,06,11,05,06,6.40
2018,06,11,05,07,6.40
2018,06,11,05,08,6.40
2018,06,11,05,09,6.40
2018,06,11,05,10,6.40
2018,06,11,05,11,6.40
2018,06,11,05,12,6.40
2018,06,11,05,13,6.30
2018,06,11,05,14,6.30
2018,06,11,05,15,6.30
2018,06,11,05,16,6.30
2018,06,11,05,17,6.30
2018,06,11,05,18,6.30
2018,06,11,05,19,6.20
2018,06,11,05,20,6.20
2018,06,11,05,21,6.20
2018,06,11,05,22,6.20
2018,06,11,05,23,6.20
2018,06,11,05,24,6.20
2018,06,11,05,25,6.20
2018,06,11,05,26,6.20
2018,06,11,05,27,6.20
2018,06,11,05,28,6.20
2018,06,11,05,29,6.20
2018,06,11,05,30,6.20
2018,06,11,05,31,6.20
2018,06,11,05,32,6.20
2018,06,11,05,33,6.10
2018,06,11,05,34,6.10
2018,06,11,05,35,6.10
2018,06,11,05,36,6.10
2018,06,11,05,37,6.10
2018,06,11,05,38,6.00
2018,06,11,05,39,6.00
2018,06,11,05,40,6.00
2018,06,11,05,41,6.00
2018,06,11,05,42,6.00
2018,06,11,05,43,6.00
2018,06,11,05,44,6.00
2018,06,11,05,45,5.90
2018,06,11,05,46,5.90
2018,06,11,05,47,5.90
2018,06,11,05,48,5.90
2018,06,11,05,49,5.90
2018,06,11,05,50,5.90
2018,06,11,05,51,5.90
2018,06,11,05,52,6.00
2018,06,11,05,53,6.00
2018,06,11,05,54,6.00
2018,06,11,05,55,6.00
2018,06,11,05,56,6.00
2018,06,11,05,57,6.00
2018,06,11,05,58,6.00
2018,06,11,05,59,6.00
2018,06,11,06,00,6.00
2018,06,11,06,01,6.00
2018,06,11,06,02,6.00
2018,06,11,06,03,6.00
2018,06,11,06,04,6.00
2018,06,11,06,05,6.00
2018,06,11,06,06,6.00
2018,06,11,06,07,6.00
2018,06,11,06,08,6.00
2018,06,11,06,09,6.00
2018,06,11,06,10,6.00
2018,06,11,06,11,6.10
2018,06,11,06,12,6.10
2018,06,11,06,13,6.10
2018,06,11,06,14,6.10
2018,06,11,06,15,6.10
2018,06,11,06,16,6.10
2018,06,11,06,17,6.20
2018,06,11,06,18,6.20
2018,06,11,06,19,6.20
2018,06,11,06,20,6.20
2018,06,11,06,21,6.30
2018,06,11,06,22,6.30
2018,06,11,06,23,6.40
2018,06,11,06,24,6.40
2018,06,11,06,25,6.50
2018,06,11,06,26,6.60
2018,06,11,06,27,6.70
2018,06,11,06,28,6.80
2018,06,11,06,29,7.00
2018,06,11,06,30,7.10
2018,06,11,06,31,7.10
2018,06,11,06,32,7.20
2018,06,11,06,33,7.20
2018,06,11,06,34,7.30
2018,06,11,06,35,7.30
2018,06,11,06,36,7.30
2018,06,11,06,37,7.30
2018,06,11,06,38,7.30
2018,06,11,06,39,7.30
2018,06,11,06,40,7.30
2018,06,11,06,41,7.40
2018,06,11,06,42,7.40
2018,06,11,06,43,7.50
2018,06,11,06,44,7.50
2018,06,11,06,45,7.60
2018,06,11,06,46,7.60
2018,06,11,06,47,7.60
2018,06,11,06,48,7.70
2018,06,11,06,49,7.70
2018,06,11,06,50,7.80
2018,06,11,06,51,7.80
2018,06,11,06,52,7.80
2018,06,11,06,53,7.90
2018,06,11,06,54,7.90
2018,06,11,06,55,8.00
2018,06,11,06,56,8.00
2018,06,11,06,57,8.10
2018,06,11,06,58,8.20
2018,06,11,06,59,8.20
2018,06,11,07,00,8.30
2018,06,11,07,01,8.40
2018,06,11,07,02,8.50
2018,06,11,07,03,8.50
2018,06,11,07,04,8.60
2018,06,11,07,05,8.70
2018,06,11,07,06,8.70
2018,06,11,07,07,8.80
2018,06,11,07,08,8.80
2018,06,11,07,09,8.90
2018,06,11,07,10,9.00
2018,06,11,07,11,9.10
2018,06,11,07,12,9.20
2018,06,11,07,13,9.20
2018,06,11,07,14,9.30
2018,06,11,07,15,9.40
2018,06,11,07,16,9.50
2018,06,11,07,17,9.60
2018,06,11,07,18,9.70
2018,06,11,07,19,9.80
2018,06,11,07,20,9.90
2018,06,11,07,21,10.00
2018,06,11,07,22,10.10
2018,06,11,07,23,10.20
2018,06,11,07,24,10.20
2018,06,11,07,25,10.30
2018,06,11,07,26,10.40
2018,06,11,07,27,10.40
2018,06,11,07,28,10.40
2018,06,11,07,29,10.40
2018,06,11,07,30,10.60
2018,06,11,07,31,10.70
2018,06,11,07,32,10.80
2018,06,11,07,33,10.90
2018,06,11,07,34,10.90
2018,06,11,07,35,10.90
2018,06,11,07,36,10.90
2018,06,11,07,37,10.90
2018,06,11,07,38,10.90
2018,06,11,07,39,10.90
2018,06,11,07,40,11.10
2018,06,11,07,41,11.10
2018,06,11,07,42,11.20
2018,06,11,07,43,11.30
2018,06,11,07,44,11.40
2018,06,11,07,45,11.50
2018,06,11,07,46,11.60
2018,06,11,07,47,11.60
2018,06,11,07,48,11.60
2018,06,11,07,49,11.60
2018,06,11,07,50,11.60
2018,06,11,07,51,11.60
2018,06,11,07,52,11.60
2018,06,11,07,53,11.60
2018,06,11,07,54,11.60
2018,06,11,07,55,11.60
2018,06,11,07,56,11.60
2018,06,11,07,57,11.60
2018,06,11,07,58,11.60
2018,06,11,07,59,11.70
2018,06,11,08,00,11.70
2018,06,11,08,01,11.80
2018,06,11,08,02,11.90
2018,06,11,08,03,12.00
2018,06,11,08,04,12.10
2018,06,11,08,05,12.30
2018,06,11,08,06,12.40
2018,06,11,08,07,12.40
2018,06,11,08,08,12.50
2018,06,11,08,09,12.60
2018,06,11,08,10,12.70
2018,06,11,08,11,12.80
2018,06,11,08,12,12.80
2018,06,11,08,13,12.80
2018,06,11,08,14,12.80
2018,06,11,08,15,12.80
2018,06,11,08,16,12.90
2018,06,11,08,17,13.00
2018,06,11,08,18,13.00
2018,06,11,08,19,13.10
2018,06,11,08,20,13.10
2018,06,11,08,21,13.20
2018,06,11,08,22,13.20
2018,06,11,08,23,13.30
2018,06,11,08,24,13.30
2018,06,11,08,25,13.30
2018,06,11,08,26,13.30
2018,06,11,08,27,13.20
2018,06,11,08,28,13.20
2018,06,11,08,29,13.20
2018,06,11,08,30,13.20
2018,06,11,08,31,13.20
2018,06,11,08,32,13.30
2018,06,11,08,33,13.40
2018,06,11,08,34,13.40
2018,06,11,08,35,13.50
2018,06,11,08,36,13.60
2018,06,11,08,37,13.70
2018,06,11,08,38,13.70
2018,06,11,08,39,13.70
2018,06,11,08,40,13.70
2018,06,11,08,41,13.70
2018,06,11,08,42,13.60
2018,06,11,08,43,13.50
2018,06,11,08,44,13.50
2018,06,11,08,45,13.50
2018,06,11,08,46,13.50
2018,06,11,08,47,13.50
2018,06,11,08,48,13.60
2018,06,11,08,49,13.60
2018,06,11,08,50,13.70
2018,06,11,08,51,13.90
2018,06,11,08,52,13.90
2018,06,11,08,53,14.00
2018,06,11,08,54,14.00
2018,06,11,08,55,14.00
2018,06,11,08,56,14.00
2018,06,11,08,57,14.00
2018,06,11,08,58,14.10
2018,06,11,08,59,14.10
2018,06,11,09,00,14.20
2018,06,11,09,01,14.20
2018,06,11,09,02,14.20
2018,06,11,09,03,14.20
2018,06,11,09,04,14.20
2018,06,11,09,05,14.20
2018,06,11,09,06,14.30
2018,06,11,09,07,14.40
2018,06,11,09,08,14.50
2018,06,11,09,09,14.60
2018,06,11,09,10,14.60
2018,06,11,09,11,14.60
2018,06,11,09,12,14.60
2018,06,11,09,13,14.70
2018,06,11,09,14,14.70
2018,06,11,09,15,14.70
2018,06,11,09,16,14.70
2018,06,11,09,17,14.70
2018,06,11,09,18,14.60
2018,06,11,09,19,14.50
2018,06,11,09,20,14.40
2018,06,11,09,21,14.40
2018,06,11,09,22,14.50
2018,06,11,09,23,14.60
2018,06,11,09,24,14.70
2018,06,11,09,25,14.80
2018,06,11,09,26,14.80
2018,06,11,09,27,14.90
2018,06,11,09,28,14.90
2018,06,11,09,29,14.80
2018,06,11,09,30,14.70
2018,06,11,09,31,14.60
2018,06,11,09,32,14.50
2018,06,11,09,33,14.50
2018,06,11,09,34,14.50
2018,06,11,09,35,14.50
2018,06,11,09,36,14.50
2018,06,11,09,37,14.50
2018,06,11,09,38,14.60
2018,06,11,09,39,14.70
2018,06,11,09,40,14.70
2018,06,11,09,41,14.80
2018,06,11,09,42,14.80
2018,06,11,09,43,14.90
2018,06,11,09,44,15.00
2018,06,11,09,45,15.00
2018,06,11,09,46,15.10
2018,06,11,09,47,15.20
2018,06,11,09,48,15.30
2018,06,11,09,49,15.30
2018,06,11,09,50,15.10
2018,06,11,09,51,14.90
2018,06,11,09,52,14.80
2018,06,11,09,53,14.80
2018,06,11,09,54,14.80
2018,06,11,09,55,14.80
2018,06,11,09,56,14.80
2018,06,11,09,57,14.80
2018,06,11,09,58,14.80
2018,06,11,09,59,14.80
2018,06,11,10,00,14.80
2018,06,11,10,01,14.80
2018,06,11,10,02,14.80
2018,06,11,10,03,14.80
2018,06,11,10,04,15.00
2018,06,11,10,05,15.10
2018,06,11,10,06,15.10
2018,06,11,10,07,15.00
2018,06,11,10,08,15.00
2018,06,11,10,09,15.00
2018,06,11,10,10,15.10
2018,06,11,10,11,15.10
2018,06,11,10,12,15.00
2018,06,11,10,13,15.00
2018,06,11,10,14,15.00
2018,06,11,10,15,15.00
2018,06,11,10,16,15.00
2018,06,11,10,17,15.10
2018,06,11,10,18,15.10
2018,06,11,10,19,15.10
2018,06,11,10,20,15.10
2018,06,11,10,21,15.00
2018,06,11,10,22,15.00
2018,06,11,10,23,14.90
2018,06,11,10,24,15.00
2018,06,11,10,25,15.10
2018,06,11,10,26,15.20
2018,06,11,10,27,15.20
2018,06,11,10,28,15.30
2018,06,11,10,29,15.30
2018,06,11,10,30,15.30
2018,06,11,10,31,15.30
2018,06,11,10,32,15.30
2018,06,11,10,33,15.30
2018,06,11,10,34,15.20
2018,06,11,10,35,15.10
2018,06,11,10,36,15.10
2018,06,11,10,37,15.20
2018,06,11,10,38,15.20
2018,06,11,10,39,15.20
2018,06,11,10,40,15.20
2018,06,11,10,41,15.20
2018,06,11,10,42,15.40
2018,06,11,10,43,15.50
2018,06,11,10,44,15.60
2018,06,11,10,45,15.70
2018,06,11,10,46,15.70
2018,06,11,10,47,15.60
2018,06,11,10,48,15.50
2018,06,11,10,49,15.40
2018,06,11,10,50,15.30
2018,06,11,10,51,15.20
2018,06,11,10,52,15.00
2018,06,11,10,53,15.00
2018,06,11,10,54,15.00
2018,06,11,10,55,15.10
2018,06,11,10,56,15.20
2018,06,11,10,57,15.20
2018,06,11,10,58,15.30
2018,06,11,10,59,15.40
2018,06,11,11,00,15.60
2018,06,11,11,01,15.70
2018,06,11,11,02,15.70
2018,06,11,11,03,15.80
2018,06,11,11,04,15.70
2018,06,11,11,05,15.50
2018,06,11,11,06,15.50
2018,06,11,11,07,15.30
2018,06,11,11,08,15.30
2018,06,11,11,09,15.30
2018,06,11,11,10,15.40
2018,06,11,11,11,15.40
2018,06,11,11,12,15.40
2018,06,11,11,13,15.30
2018,06,11,11,14,15.50
2018,06,11,11,15,15.60
2018,06,11,11,16,15.70
2018,06,11,11,17,15.70
2018,06,11,11,18,15.80
2018,06,11,11,19,15.80
2018,06,11,11,20,15.80
2018,06,11,11,21,15.60
2018,06,11,11,22,15.60
2018,06,11,11,23,15.60
2018,06,11,11,24,15.70
2018,06,11,11,25,15.80
2018,06,11,11,26,15.70
2018,06,11,11,27,15.60
2018,06,11,11,28,15.60
2018,06,11,11,29,15.50
2018,06,11,11,30,15.60
2018,06,11,11,31,15.60
2018,06,11,11,32,15.60
2018,06,11,11,33,15.60
2018,06,11,11,34,15.50
2018,06,11,11,35,15.50
2018,06,11,11,36,15.60
2018,06,11,11,37,15.60
2018,06,11,11,38,15.60
2018,06,11,11,39,15.70
2018,06,11,11,40,15.80
2018,06,11,11,41,15.70
2018,06,11,11,42,15.60
2018,06,11,11,43,15.60
2018,06,11,11,44,15.60
2018,06,11,11,45,15.70
2018,06,11,11,46,15.70
2018,06,11,11,47,15.60
2018,06,11,11,48,15.70
2018,06,11,11,49,15.70
2018,06,11,11,50,15.60
2018,06,11,11,51,15.60
2018,06,11,11,52,15.60
2018,06,11,11,53,15.70
2018,06,11,11,54,15.70
2018,06,11,11,55,15.60
2018,06,11,11,56,15.60
2018,06,11,11,57,15.70
2018,06,11,11,58,15.80
2018,06,11,11,59,15.60
2018,06,11,12,00,15.60
2018,06,11,12,01,15.70
2018,06,11,12,02,15.90
2018,06,11,12,03,16.10
2018,06,11,12,04,16.10
2018,06,11,12,05,16.10
2018,06,11,12,06,16.10
2018,06,11,12,07,16.10
2018,06,11,12,08,16.10
2018,06,11,12,09,16.00
2018,06,11,12,10,15.80
2018,06,11,12,11,15.60
2018,06,11,12,12,15.60
2018,06,11,12,13,15.40
2018,06,11,12,14,15.50
2018,06,11,12,15,15.50
2018,06,11,12,16,15.30
2018,06,11,12,17,15.30
2018,06,11,12,18,15.30
2018,06,11,12,19,15.40
2018,06,11,12,20,15.30
2018,06,11,12,21,15.30
2018,06,11,12,22,15.30
2018,06,11,12,23,15.20
2018,06,11,12,24,15.20
2018,06,11,12,25,15.40
2018,06,11,12,26,15.50
2018,06,11,12,27,15.70
2018,06,11,12,28,15.80
2018,06,11,12,29,15.80
2018,06,11,12,30,15.70
2018,06,11,12,31,15.60
2018,06,11,12,32,15.70
2018,06,11,12,33,15.80
2018,06,11,12,34,15.70
2018,06,11,12,35,15.60
2018,06,11,12,36,15.60
2018,06,11,12,37,15.50
2018,06,11,12,38,15.50
2018,06,11,12,39,15.60
2018,06,11,12,40,15.70
2018,06,11,12,41,15.80
2018,06,11,12,42,15.80
2018,06,11,12,43,15.80
2018,06,11,12,44,15.80
2018,06,11,12,45,15.80
2018,06,11,12,46,15.80
2018,06,11,12,47,16.10
2018,06,11,12,48,16.10
2018,06,11,12,49,16.10
2018,06,11,12,50,16.00
2018,06,11,12,51,16.00
2018,06,11,12,52,16.10
2018,06,11,12,53,16.10
2018,06,11,12,54,16.10
2018,06,11,12,55,16.10
2018,06,11,12,56,16.10
2018,06,11,12,57,16.10
2018,06,11,12,58,16.10
2018,06,11,12,59,16.10
2018,06,11,13,00,16.10
2018,06,11,13,01,16.10
2018,06,11,13,02,16.10
2018,06,11,13,03,16.20
2018,06,11,13,04,16.30
2018,06,11,13,05,16.30
2018,06,11,13,06,16.20
2018,06,11,13,07,16.10
2018,06,11,13,08,16.00
2018,06,11,13,09,15.90
2018,06,11,13,10,15.80
2018,06,11,13,11,15.80
2018,06,11,13,12,15.80
2018,06,11,13,13,15.80
2018,06,11,13,14,15.80
2018,06,11,13,15,15.80
2018,06,11,13,16,15.80
2018,06,11,13,17,15.80
2018,06,11,13,18,15.90
2018,06,11,13,19,15.90
2018,06,11,13,20,16.00
2018,06,11,13,21,16.10
2018,06,11,13,22,16.10
2018,06,11,13,23,16.00
2018,06,11,13,24,15.90
2018,06,11,13,25,15.80
2018,06,11,13,26,16.00
2018,06,11,13,27,16.10
2018,06,11,13,28,16.10
2018,06,11,13,29,16.10
2018,06,11,13,30,16.00
2018,06,11,13,31,15.80
2018,06,11,13,32,15.80
2018,06,11,13,33,15.80
2018,06,11,13,34,15.90
2018,06,11,13,35,16.00
2018,06,11,13,36,16.10
2018,06,11,13,37,16.10
2018,06,11,13,38,15.90
2018,06,11,13,39,15.90
2018,06,11,13,40,15.90
2018,06,11,13,41,15.90
2018,06,11,13,42,16.00
2018,06,11,13,43,16.10
2018,06,11,13,44,16.10
2018,06,11,13,45,16.00
2018,06,11,13,46,15.90
2018,06,11,13,47,15.90
2018,06,11,13,48,16.00
2018,06,11,13,49,16.10
2018,06,11,13,50,16.20
2018,06,11,13,51,16.40
2018,06,11,13,52,16.50
2018,06,11,13,53,16.60
2018,06,11,13,54,16.60
2018,06,11,13,55,16.50
2018,06,11,13,56,16.50
2018,06,11,13,57,16.40
2018,06,11,13,58,16.20
2018,06,11,13,59,16.20
2018,06,11,14,00,16.10
2018,06,11,14,01,16.00
2018,06,11,14,02,16.10
2018,06,11,14,03,16.00
2018,06,11,14,04,15.70
2018,06,11,14,05,15.40
2018,06,11,14,06,15.30
2018,06,11,14,07,15.20
2018,06,11,14,08,15.00
2018,06,11,14,09,15.00
2018,06,11,14,10,15.20
2018,06,11,14,11,15.20
2018,06,11,14,12,15.40
2018,06,11,14,13,15.50
2018,06,11,14,14,15.50
2018,06,11,14,15,15.50
2018,06,11,14,16,15.40
2018,06,11,14,17,15.30
2018,06,11,14,18,15.50
2018,06,11,14,19,15.50
2018,06,11,14,20,15.50
2018,06,11,14,21,15.60
2018,06,11,14,22,15.70
2018,06,11,14,23,15.70
2018,06,11,14,24,15.70
2018,06,11,14,25,15.70
2018,06,11,14,26,15.70
2018,06,11,14,27,15.60
2018,06,11,14,28,15.60
2018,06,11,14,29,15.70
2018,06,11,14,30,15.70
2018,06,11,14,31,15.80
2018,06,11,14,32,15.80
2018,06,11,14,33,15.60
2018,06,11,14,34,15.50
2018,06,11,14,35,15.40
2018,06,11,14,36,15.20
2018,06,11,14,37,15.00
2018,06,11,14,38,15.00
2018,06,11,14,39,14.90
2018,06,11,14,40,15.00
2018,06,11,14,41,15.10
2018,06,11,14,42,15.00
2018,06,11,14,43,14.90
2018,06,11,14,44,14.80
2018,06,11,14,45,14.70
2018,06,11,14,46,14.70
2018,06,11,14,47,14.70
2018,06,11,14,48,14.90
2018,06,11,14,49,15.00
2018,06,11,14,50,15.00
2018,06,11,14,51,15.00
2018,06,11,14,52,15.00
2018,06,11,14,53,15.00
2018,06,11,14,54,15.00
2018,06,11,14,55,15.10
2018,06,11,14,56,15.20
2018,06,11,14,57,15.00
2018,06,11,14,58,14.90
2018,06,11,14,59,14.80
2018,06,11,15,00,14.80
2018,06,11,15,01,14.90
2018,06,11,15,02,15.10
2018,06,11,15,03,15.20
2018,06,11,15,04,15.20
2018,06,11,15,05,15.10
2018,06,11,15,06,14.90
2018,06,11,15,07,14.80
2018,06,11,15,08,14.80
2018,06,11,15,09,14.90
2018,06,11,15,10,15.00
2018,06,11,15,11,14.90
2018,06,11,15,12,14.80
2018,06,11,15,13,14.70
2018,06,11,15,14,14.60
2018,06,11,15,15,14.50
2018,06,11,15,16,14.60
2018,06,11,15,17,14.70
2018,06,11,15,18,14.80
2018,06,11,15,19,14.80
2018,06,11,15,20,14.90
2018,06,11,15,21,14.90
2018,06,11,15,22,14.90
2018,06,11,15,23,14.90
2018,06,11,15,24,14.80
2018,06,11,15,25,14.90
2018,06,11,15,26,15.00
2018,06,11,15,27,15.00
2018,06,11,15,28,14.90
2018,06,11,15,29,14.80
2018,06,11,15,30,14.90
2018,06,11,15,31,15.00
2018,06,11,15,32,15.10
2018,06,11,15,33,15.00
2018,06,11,15,34,15.00
2018,06,11,15,35,14.90
2018,06,11,15,36,14.80
2018,06,11,15,37,14.80
2018,06,11,15,38,14.80
2018,06,11,15,39,14.70
2018,06,11,15,40,14.70
2018,06,11,15,41,14.70
2018,06,11,15,42,14.80
2018,06,11,15,43,14.80
2018,06,11,15,44,14.90
2018,06,11,15,45,14.80
2018,06,11,15,46,14.90
2018,06,11,15,47,14.90
2018,06,11,15,48,14.90
2018,06,11,15,49,14.90
2018,06,11,15,50,15.00
2018,06,11,15,51,15.00
2018,06,11,15,52,15.10
2018,06,11,15,53,15.10
2018,06,11,15,54,15.00
2018,06,11,15,55,15.10
2018,06,11,15,56,15.20
2018,06,11,15,57,15.30
2018,06,11,15,58,15.30
2018,06,11,15,59,15.50
2018,06,11,16,00,15.60
2018,06,11,16,01,15.70
2018,06,11,16,02,15.70
2018,06,11,16,03,15.70
2018,06,11,16,04,15.60
2018,06,11,16,05,15.50
2018,06,11,16,06,15.50
2018,06,11,16,07,15.60
2018,06,11,16,08,15.60
2018,06,11,16,09,15.70
2018,06,11,16,10,15.80
2018,06,11,16,11,15.80
2018,06,11,16,12,15.80
2018,06,11,16,13,15.80
2018,06,11,16,14,15.90
2018,06,11,16,15,15.90
2018,06,11,16,16,15.90
2018,06,11,16,17,15.90
2018,06,11,16,18,16.00
2018,06,11,16,19,16.20
2018,06,11,16,20,16.40
2018,06,11,16,21,16.60
2018,06,11,16,22,16.70
2018,06,11,16,23,16.70
2018,06,11,16,24,16.80
2018,06,11,16,25,16.90
2018,06,11,16,26,17.10
2018,06,11,16,27,17.20
2018,06,11,16,28,17.30
2018,06,11,16,29,17.20
2018,06,11,16,30,17.30
2018,06,11,16,31,17.30
2018,06,11,16,32,17.40
2018,06,11,16,33,17.30
2018,06,11,16,34,17.40
2018,06,11,16,35,17.50
2018,06,11,16,36,17.70
2018,06,11,16,37,17.80
2018,06,11,16,38,17.90
2018,06,11,16,39,17.90
2018,06,11,16,40,17.90
2018,06,11,16,41,17.90
2018,06,11,16,42,17.90
2018,06,11,16,43,17.90
2018,06,11,16,44,17.90
2018,06,11,16,45,17.60
2018,06,11,16,46,17.50
2018,06,11,16,47,17.60
2018,06,11,16,48,17.70
2018,06,11,16,49,17.80
2018,06,11,16,50,17.70
2018,06,11,16,51,17.60
2018,06,11,16,52,17.60
2018,06,11,16,53,17.70
2018,06,11,16,54,17.80
2018,06,11,16,55,18.00
2018,06,11,16,56,18.10
2018,06,11,16,57,18.10
2018,06,11,16,58,18.20
2018,06,11,16,59,18.20
2018,06,11,17,00,18.30
2018,06,11,17,01,18.30
2018,06,11,17,02,18.20
2018,06,11,17,03,18.10
2018,06,11,17,04,18.00
2018,06,11,17,05,17.90
2018,06,11,17,06,18.00
2018,06,11,17,07,18.10
2018,06,11,17,08,18.00
2018,06,11,17,09,18.10
2018,06,11,17,10,18.20
2018,06,11,17,11,18.40
2018,06,11,17,12,18.60
2018,06,11,17,13,18.80
2018,06,11,17,14,19.00
2018,06,11,17,15,19.10
2018,06,11,17,16,19.20
2018,06,11,17,17,19.30
2018,06,11,17,18,19.30
2018,06,11,17,19,19.40
2018,06,11,17,20,19.50
2018,06,11,17,21,19.50
2018,06,11,17,22,19.50
2018,06,11,17,23,19.60
2018,06,11,17,24,19.60
2018,06,11,17,25,19.70
2018,06,11,17,26,19.70
2018,06,11,17,27,19.70
2018,06,11,17,28,19.80
2018,06,11,17,29,19.90
2018,06,11,17,30,19.90
2018,06,11,17,31,20.10
2018,06,11,17,32,20.20
2018,06,11,17,33,20.20
2018,06,11,17,34,20.20
2018,06,11,17,35,20.20
2018,06,11,17,36,20.20